Year,Month,Day,Hour,Minute,Value (Times are PST for insolation in W/m^2)
2016,09,03,00,00,0.00
2016,09,03,00,01,0.00
2016,09,03,00,02,0.00
2016,09,03,00,03,0.00
2016,09,03,00,04,0.00
2016,09,03,00,05,0.00
2016,09,03,00,06,0.00
2016,09,03,00,07,0.00
2016,09,03,00,08,0.00
2016,09,03,00,09,0.00
2016,09,03,00,10,0.00
2016,09,03,00,11,0.00
2016,09,03,00,12,0.00
2016,09,03,00,13,0.00
2016,09,03,00,14,0.00
2016,09,03,00,15,0.00
2016,09,03,00,16,0.00
2016,09,03,00,17,0.00
2016,09,03,00,18,0.00
2016,09,03,00,19,0.00
2016,09,03,00,20,0.00
2016,09,03,00,21,0.00
2016,09,03,00,22,0.00
2016,09,03,00,23,0.00
2016,09,03,00,24,0.00
2016,09,03,00,25,0.00
2016,09,03,00,26,0.00
2016,09,03,00,27,0.00
2016,09,03,00,28,0.00
2016,09,03,00,29,0.00
2016,09,03,00,30,0.00
2016,09,03,00,31,0.00
2016,09,03,00,32,0.00
2016,09,03,00,33,0.00
2016,09,03,00,34,0.00
2016,09,03,00,35,0.00
2016,09,03,00,36,0.00
2016,09,03,00,37,0.00
2016,09,03,00,38,0.00
2016,09,03,00,39,0.00
2016,09,03,00,40,0.00
2016,09,03,00,41,0.00
2016,09,03,00,42,0.00
2016,09,03,00,43,0.00
2016,09,03,00,44,0.00
2016,09,03,00,45,0.00
2016,09,03,00,46,0.00
2016,09,03,00,47,0.00
2016,09,03,00,48,0.00
2016,09,03,00,49,0.00
2016,09,03,00,50,0.00
2016,09,03,00,51,0.00
2016,09,03,00,52,0.00
2016,09,03,00,53,0.00
2016,09,03,00,54,0.00
2016,09,03,00,55,0.00
2016,09,03,00,56,0.00
2016,09,03,00,57,0.00
2016,09,03,00,58,0.00
2016,09,03,00,59,0.00
2016,09,03,01,00,0.00
2016,09,03,01,01,0.00
2016,09,03,01,02,0.00
2016,09,03,01,03,0.00
2016,09,03,01,04,0.00
2016,09,03,01,05,0.00
2016,09,03,01,06,0.00
2016,09,03,01,07,0.00
2016,09,03,01,08,0.00
2016,09,03,01,09,0.00
2016,09,03,01,10,0.00
2016,09,03,01,11,0.00
2016,09,03,01,12,0.00
2016,09,03,01,13,0.00
2016,09,03,01,14,0.00
2016,09,03,01,15,0.00
2016,09,03,01,16,0.00
2016,09,03,01,17,0.00
2016,09,03,01,18,0.00
2016,09,03,01,19,0.00
2016,09,03,01,20,0.00
2016,09,03,01,21,0.00
2016,09,03,01,22,0.00
2016,09,03,01,23,0.00
2016,09,03,01,24,0.00
2016,09,03,01,25,0.00
2016,09,03,01,26,0.00
2016,09,03,01,27,0.00
2016,09,03,01,28,0.00
2016,09,03,01,29,0.00
2016,09,03,01,30,0.00
2016,09,03,01,31,0.00
2016,09,03,01,32,0.00
2016,09,03,01,33,0.00
2016,09,03,01,34,0.00
2016,09,03,01,35,0.00
2016,09,03,01,36,0.00
2016,09,03,01,37,0.00
2016,09,03,01,38,0.00
2016,09,03,01,39,0.00
2016,09,03,01,40,0.00
2016,09,03,01,41,0.00
2016,09,03,01,42,0.00
2016,09,03,01,43,0.00
2016,09,03,01,44,0.00
2016,09,03,01,45,0.00
2016,09,03,01,46,0.00
2016,09,03,01,47,0.00
2016,09,03,01,48,0.00
2016,09,03,01,49,0.00
2016,09,03,01,50,0.00
2016,09,03,01,51,0.00
2016,09,03,01,52,0.00
2016,09,03,01,53,0.00
2016,09,03,01,54,0.00
2016,09,03,01,55,0.00
2016,09,03,01,56,0.00
2016,09,03,01,57,0.00
2016,09,03,01,58,0.00
2016,09,03,01,59,0.00
2016,09,03,02,00,0.00
2016,09,03,02,01,0.00
2016,09,03,02,02,0.00
2016,09,03,02,03,0.00
2016,09,03,02,04,0.00
2016,09,03,02,05,0.00
2016,09,03,02,06,0.00
2016,09,03,02,07,0.00
2016,09,03,02,08,0.00
2016,09,03,02,09,0.00
2016,09,03,02,10,0.00
2016,09,03,02,11,0.00
2016,09,03,02,12,0.00
2016,09,03,02,13,0.00
2016,09,03,02,14,0.00
2016,09,03,02,15,0.00
2016,09,03,02,16,0.00
2016,09,03,02,17,0.00
2016,09,03,02,18,0.00
2016,09,03,02,19,0.00
2016,09,03,02,20,0.00
2016,09,03,02,21,0.00
2016,09,03,02,22,0.00
2016,09,03,02,23,0.00
2016,09,03,02,24,0.00
2016,09,03,02,25,0.00
2016,09,03,02,26,0.00
2016,09,03,02,27,0.00
2016,09,03,02,28,0.00
2016,09,03,02,29,0.00
2016,09,03,02,30,0.00
2016,09,03,02,31,0.00
2016,09,03,02,32,0.00
2016,09,03,02,33,0.00
2016,09,03,02,34,0.00
2016,09,03,02,35,0.00
2016,09,03,02,36,0.00
2016,09,03,02,37,0.00
2016,09,03,02,38,0.00
2016,09,03,02,39,0.00
2016,09,03,02,40,0.00
2016,09,03,02,41,0.00
2016,09,03,02,42,0.00
2016,09,03,02,43,0.00
2016,09,03,02,44,0.00
2016,09,03,02,45,0.00
2016,09,03,02,46,0.00
2016,09,03,02,47,0.00
2016,09,03,02,48,0.00
2016,09,03,02,49,0.00
2016,09,03,02,50,0.00
2016,09,03,02,51,0.00
2016,09,03,02,52,0.00
2016,09,03,02,53,0.00
2016,09,03,02,54,0.00
2016,09,03,02,55,0.00
2016,09,03,02,56,0.00
2016,09,03,02,57,0.00
2016,09,03,02,58,0.00
2016,09,03,02,59,0.00
2016,09,03,03,00,0.00
2016,09,03,03,01,0.00
2016,09,03,03,02,0.00
2016,09,03,03,03,0.00
2016,09,03,03,04,0.00
2016,09,03,03,05,0.00
2016,09,03,03,06,0.00
2016,09,03,03,07,0.00
2016,09,03,03,08,0.00
2016,09,03,03,09,0.00
2016,09,03,03,10,0.00
2016,09,03,03,11,0.00
2016,09,03,03,12,0.00
2016,09,03,03,13,0.00
2016,09,03,03,14,0.00
2016,09,03,03,15,0.00
2016,09,03,03,16,0.00
2016,09,03,03,17,0.00
2016,09,03,03,18,0.00
2016,09,03,03,19,0.00
2016,09,03,03,20,0.00
2016,09,03,03,21,0.00
2016,09,03,03,22,0.00
2016,09,03,03,23,0.00
2016,09,03,03,24,0.00
2016,09,03,03,25,0.00
2016,09,03,03,26,0.00
2016,09,03,03,27,0.00
2016,09,03,03,28,0.00
2016,09,03,03,29,0.00
2016,09,03,03,30,0.00
2016,09,03,03,31,0.00
2016,09,03,03,32,0.00
2016,09,03,03,33,0.00
2016,09,03,03,34,0.00
2016,09,03,03,35,0.00
2016,09,03,03,36,0.00
2016,09,03,03,37,0.00
2016,09,03,03,38,0.00
2016,09,03,03,39,0.00
2016,09,03,03,40,0.00
2016,09,03,03,41,0.00
2016,09,03,03,42,0.00
2016,09,03,03,43,0.00
2016,09,03,03,44,0.00
2016,09,03,03,45,0.00
2016,09,03,03,46,0.00
2016,09,03,03,47,0.00
2016,09,03,03,48,0.00
2016,09,03,03,49,0.00
2016,09,03,03,50,0.00
2016,09,03,03,51,0.00
2016,09,03,03,52,0.00
2016,09,03,03,53,0.00
2016,09,03,03,54,0.00
2016,09,03,03,55,0.00
2016,09,03,03,56,0.00
2016,09,03,03,57,0.00
2016,09,03,03,58,0.00
2016,09,03,03,59,0.00
2016,09,03,04,00,0.00
2016,09,03,04,01,0.00
2016,09,03,04,02,0.00
2016,09,03,04,03,0.00
2016,09,03,04,04,0.00
2016,09,03,04,05,0.00
2016,09,03,04,06,0.00
2016,09,03,04,07,0.00
2016,09,03,04,08,0.00
2016,09,03,04,09,0.00
2016,09,03,04,10,0.00
2016,09,03,04,11,0.00
2016,09,03,04,12,0.00
2016,09,03,04,13,0.00
2016,09,03,04,14,0.00
2016,09,03,04,15,0.00
2016,09,03,04,16,0.00
2016,09,03,04,17,0.00
2016,09,03,04,18,0.00
2016,09,03,04,19,0.00
2016,09,03,04,20,0.00
2016,09,03,04,21,0.00
2016,09,03,04,22,0.00
2016,09,03,04,23,0.00
2016,09,03,04,24,0.00
2016,09,03,04,25,0.00
2016,09,03,04,26,0.00
2016,09,03,04,27,0.00
2016,09,03,04,28,0.00
2016,09,03,04,29,0.00
2016,09,03,04,30,0.00
2016,09,03,04,31,0.00
2016,09,03,04,32,0.00
2016,09,03,04,33,0.00
2016,09,03,04,34,0.00
2016,09,03,04,35,0.00
2016,09,03,04,36,0.00
2016,09,03,04,37,0.00
2016,09,03,04,38,0.00
2016,09,03,04,39,0.00
2016,09,03,04,40,0.00
2016,09,03,04,41,0.00
2016,09,03,04,42,0.00
2016,09,03,04,43,0.00
2016,09,03,04,44,0.00
2016,09,03,04,45,0.00
2016,09,03,04,46,0.00
2016,09,03,04,47,0.00
2016,09,03,04,48,0.00
2016,09,03,04,49,0.00
2016,09,03,04,50,0.00
2016,09,03,04,51,0.00
2016,09,03,04,52,0.00
2016,09,03,04,53,0.00
2016,09,03,04,54,0.00
2016,09,03,04,55,0.00
2016,09,03,04,56,0.00
2016,09,03,04,57,0.00
2016,09,03,04,58,0.00
2016,09,03,04,59,0.00
2016,09,03,05,00,0.00
2016,09,03,05,01,0.00
2016,09,03,05,02,0.00
2016,09,03,05,03,0.00
2016,09,03,05,04,0.00
2016,09,03,05,05,0.00
2016,09,03,05,06,0.00
2016,09,03,05,07,0.00
2016,09,03,05,08,0.00
2016,09,03,05,09,0.00
2016,09,03,05,10,0.00
2016,09,03,05,11,0.00
2016,09,03,05,12,0.00
2016,09,03,05,13,0.00
2016,09,03,05,14,0.00
2016,09,03,05,15,0.00
2016,09,03,05,16,0.00
2016,09,03,05,17,0.00
2016,09,03,05,18,0.00
2016,09,03,05,19,0.00
2016,09,03,05,20,0.00
2016,09,03,05,21,0.00
2016,09,03,05,22,0.00
2016,09,03,05,23,0.00
2016,09,03,05,24,0.00
2016,09,03,05,25,0.00
2016,09,03,05,26,0.00
2016,09,03,05,27,0.00
2016,09,03,05,28,0.00
2016,09,03,05,29,0.00
2016,09,03,05,30,0.00
2016,09,03,05,31,0.00
2016,09,03,05,32,0.00
2016,09,03,05,33,0.00
2016,09,03,05,34,0.00
2016,09,03,05,35,0.00
2016,09,03,05,36,0.00
2016,09,03,05,37,0.00
2016,09,03,05,38,0.00
2016,09,03,05,39,0.00
2016,09,03,05,40,0.00
2016,09,03,05,41,0.00
2016,09,03,05,42,0.00
2016,09,03,05,43,0.00
2016,09,03,05,44,0.00
2016,09,03,05,45,0.00
2016,09,03,05,46,0.00
2016,09,03,05,47,0.00
2016,09,03,05,48,0.00
2016,09,03,05,49,0.00
2016,09,03,05,50,0.00
2016,09,03,05,51,0.00
2016,09,03,05,52,0.00
2016,09,03,05,53,0.00
2016,09,03,05,54,0.00
2016,09,03,05,55,0.00
2016,09,03,05,56,0.00
2016,09,03,05,57,0.00
2016,09,03,05,58,0.00
2016,09,03,05,59,0.00
2016,09,03,06,00,0.00
2016,09,03,06,01,0.00
2016,09,03,06,02,0.00
2016,09,03,06,03,0.00
2016,09,03,06,04,0.00
2016,09,03,06,05,0.00
2016,09,03,06,06,0.00
2016,09,03,06,07,0.00
2016,09,03,06,08,0.00
2016,09,03,06,09,0.00
2016,09,03,06,10,0.00
2016,09,03,06,11,0.00
2016,09,03,06,12,0.00
2016,09,03,06,13,0.00
2016,09,03,06,14,0.00
2016,09,03,06,15,0.00
2016,09,03,06,16,0.00
2016,09,03,06,17,0.00
2016,09,03,06,18,0.00
2016,09,03,06,19,0.00
2016,09,03,06,20,0.00
2016,09,03,06,21,0.00
2016,09,03,06,22,0.00
2016,09,03,06,23,0.00
2016,09,03,06,24,0.00
2016,09,03,06,25,0.00
2016,09,03,06,26,0.00
2016,09,03,06,27,0.00
2016,09,03,06,28,0.00
2016,09,03,06,29,0.00
2016,09,03,06,30,0.00
2016,09,03,06,31,0.00
2016,09,03,06,32,0.00
2016,09,03,06,33,0.00
2016,09,03,06,34,0.00
2016,09,03,06,35,0.00
2016,09,03,06,36,0.00
2016,09,03,06,37,0.00
2016,09,03,06,38,0.00
2016,09,03,06,39,0.00
2016,09,03,06,40,0.00
2016,09,03,06,41,0.00
2016,09,03,06,42,0.00
2016,09,03,06,43,0.00
2016,09,03,06,44,0.00
2016,09,03,06,45,0.00
2016,09,03,06,46,0.00
2016,09,03,06,47,0.00
2016,09,03,06,48,0.00
2016,09,03,06,49,0.00
2016,09,03,06,50,0.00
2016,09,03,06,51,0.00
2016,09,03,06,52,0.00
2016,09,03,06,53,0.00
2016,09,03,06,54,0.00
2016,09,03,06,55,0.00
2016,09,03,06,56,0.00
2016,09,03,06,57,0.00
2016,09,03,06,58,0.00
2016,09,03,06,59,0.00
2016,09,03,07,00,0.00
2016,09,03,07,01,0.00
2016,09,03,07,02,0.00
2016,09,03,07,03,0.00
2016,09,03,07,04,0.00
2016,09,03,07,05,0.00
2016,09,03,07,06,0.00
2016,09,03,07,07,0.00
2016,09,03,07,08,0.00
2016,09,03,07,09,0.00
2016,09,03,07,10,0.00
2016,09,03,07,11,0.00
2016,09,03,07,12,0.00
2016,09,03,07,13,0.00
2016,09,03,07,14,0.00
2016,09,03,07,15,0.00
2016,09,03,07,16,0.00
2016,09,03,07,17,0.00
2016,09,03,07,18,0.00
2016,09,03,07,19,4.50
2016,09,03,07,20,5.00
2016,09,03,07,21,5.50
2016,09,03,07,22,7.00
2016,09,03,07,23,7.00
2016,09,03,07,24,8.20
2016,09,03,07,25,9.00
2016,09,03,07,26,9.00
2016,09,03,07,27,11.00
2016,09,03,07,28,11.00
2016,09,03,07,29,11.40
2016,09,03,07,30,12.00
2016,09,03,07,31,12.00
2016,09,03,07,32,12.00
2016,09,03,07,33,13.80
2016,09,03,07,34,14.30
2016,09,03,07,35,16.00
2016,09,03,07,36,16.70
2016,09,03,07,37,18.00
2016,09,03,07,38,18.60
2016,09,03,07,39,20.40
2016,09,03,07,40,22.70
2016,09,03,07,41,23.30
2016,09,03,07,42,25.00
2016,09,03,07,43,25.40
2016,09,03,07,44,27.00
2016,09,03,07,45,30.50
2016,09,03,07,46,34.20
2016,09,03,07,47,38.40
2016,09,03,07,48,40.30
2016,09,03,07,49,41.50
2016,09,03,07,50,39.60
2016,09,03,07,51,37.00
2016,09,03,07,52,33.80
2016,09,03,07,53,33.00
2016,09,03,07,54,32.10
2016,09,03,07,55,31.70
2016,09,03,07,56,30.00
2016,09,03,07,57,30.00
2016,09,03,07,58,30.00
2016,09,03,07,59,30.00
2016,09,03,08,00,30.00
2016,09,03,08,01,30.00
2016,09,03,08,02,32.10
2016,09,03,08,03,33.50
2016,09,03,08,04,35.80
2016,09,03,08,05,38.60
2016,09,03,08,06,42.40
2016,09,03,08,07,45.40
2016,09,03,08,08,48.60
2016,09,03,08,09,51.30
2016,09,03,08,10,54.50
2016,09,03,08,11,57.50
2016,09,03,08,12,61.60
2016,09,03,08,13,65.60
2016,09,03,08,14,68.40
2016,09,03,08,15,71.60
2016,09,03,08,16,74.20
2016,09,03,08,17,76.70
2016,09,03,08,18,79.80
2016,09,03,08,19,83.50
2016,09,03,08,20,88.50
2016,09,03,08,21,93.80
2016,09,03,08,22,96.80
2016,09,03,08,23,100.40
2016,09,03,08,24,104.70
2016,09,03,08,25,108.40
2016,09,03,08,26,113.40
2016,09,03,08,27,118.50
2016,09,03,08,28,122.20
2016,09,03,08,29,127.30
2016,09,03,08,30,134.10
2016,09,03,08,31,136.00
2016,09,03,08,32,139.00
2016,09,03,08,33,139.00
2016,09,03,08,34,140.20
2016,09,03,08,35,141.80
2016,09,03,08,36,143.70
2016,09,03,08,37,146.40
2016,09,03,08,38,149.50
2016,09,03,08,39,151.80
2016,09,03,08,40,153.00
2016,09,03,08,41,151.80
2016,09,03,08,42,149.50
2016,09,03,08,43,146.40
2016,09,03,08,44,143.70
2016,09,03,08,45,142.60
2016,09,03,08,46,144.00
2016,09,03,08,47,144.00
2016,09,03,08,48,147.10
2016,09,03,08,49,152.00
2016,09,03,08,50,154.70
2016,09,03,08,51,155.30
2016,09,03,08,52,158.50
2016,09,03,08,53,161.10
2016,09,03,08,54,162.50
2016,09,03,08,55,155.20
2016,09,03,08,56,140.50
2016,09,03,08,57,129.30
2016,09,03,08,58,122.70
2016,09,03,08,59,119.50
2016,09,03,09,00,117.30
2016,09,03,09,01,117.00
2016,09,03,09,02,118.00
2016,09,03,09,03,119.40
2016,09,03,09,04,120.90
2016,09,03,09,05,123.00
2016,09,03,09,06,123.50
2016,09,03,09,07,125.00
2016,09,03,09,08,125.00
2016,09,03,09,09,125.00
2016,09,03,09,10,125.00
2016,09,03,09,11,126.80
2016,09,03,09,12,127.00
2016,09,03,09,13,127.20
2016,09,03,09,14,128.80
2016,09,03,09,15,131.00
2016,09,03,09,16,133.20
2016,09,03,09,17,134.80
2016,09,03,09,18,136.80
2016,09,03,09,19,139.20
2016,09,03,09,20,141.20
2016,09,03,09,21,142.80
2016,09,03,09,22,146.10
2016,09,03,09,23,148.60
2016,09,03,09,24,149.00
2016,09,03,09,25,150.70
2016,09,03,09,26,150.80
2016,09,03,09,27,149.00
2016,09,03,09,28,148.60
2016,09,03,09,29,148.50
2016,09,03,09,30,149.00
2016,09,03,09,31,150.50
2016,09,03,09,32,154.40
2016,09,03,09,33,156.60
2016,09,03,09,34,160.80
2016,09,03,09,35,163.80
2016,09,03,09,36,167.00
2016,09,03,09,37,170.90
2016,09,03,09,38,175.00
2016,09,03,09,39,177.80
2016,09,03,09,40,181.10
2016,09,03,09,41,183.50
2016,09,03,09,42,185.00
2016,09,03,09,43,185.50
2016,09,03,09,44,185.40
2016,09,03,09,45,182.00
2016,09,03,09,46,179.20
2016,09,03,09,47,173.30
2016,09,03,09,48,167.90
2016,09,03,09,49,164.30
2016,09,03,09,50,161.60
2016,09,03,09,51,158.80
2016,09,03,09,52,158.00
2016,09,03,09,53,159.70
2016,09,03,09,54,162.30
2016,09,03,09,55,166.00
2016,09,03,09,56,170.10
2016,09,03,09,57,175.10
2016,09,03,09,58,179.90
2016,09,03,09,59,186.30
2016,09,03,10,00,192.50
2016,09,03,10,01,201.00
2016,09,03,10,02,208.70
2016,09,03,10,03,215.00
2016,09,03,10,04,219.60
2016,09,03,10,05,223.60
2016,09,03,10,06,228.00
2016,09,03,10,07,235.00
2016,09,03,10,08,248.50
2016,09,03,10,09,270.70
2016,09,03,10,10,279.40
2016,09,03,10,11,287.50
2016,09,03,10,12,294.20
2016,09,03,10,13,299.90
2016,09,03,10,14,301.90
2016,09,03,10,15,302.60
2016,09,03,10,16,308.70
2016,09,03,10,17,312.90
2016,09,03,10,18,322.50
2016,09,03,10,19,375.60
2016,09,03,10,20,353.90
2016,09,03,10,21,338.90
2016,09,03,10,22,357.50
2016,09,03,10,23,418.90
2016,09,03,10,24,446.60
2016,09,03,10,25,378.00
2016,09,03,10,26,341.00
2016,09,03,10,27,333.40
2016,09,03,10,28,330.20
2016,09,03,10,29,319.40
2016,09,03,10,30,315.80
2016,09,03,10,31,314.20
2016,09,03,10,32,315.40
2016,09,03,10,33,325.30
2016,09,03,10,34,314.10
2016,09,03,10,35,302.80
2016,09,03,10,36,306.30
2016,09,03,10,37,307.50
2016,09,03,10,38,306.80
2016,09,03,10,39,308.50
2016,09,03,10,40,309.00
2016,09,03,10,41,306.70
2016,09,03,10,42,314.60
2016,09,03,10,43,318.40
2016,09,03,10,44,327.60
2016,09,03,10,45,361.30
2016,09,03,10,46,409.50
2016,09,03,10,47,373.90
2016,09,03,10,48,326.10
2016,09,03,10,49,336.30
2016,09,03,10,50,382.40
2016,09,03,10,51,438.00
2016,09,03,10,52,438.00
2016,09,03,10,53,438.00
2016,09,03,10,54,474.60
2016,09,03,10,55,497.00
2016,09,03,10,56,497.00
2016,09,03,10,57,469.60
2016,09,03,10,58,486.40
2016,09,03,10,59,497.00
2016,09,03,11,00,610.80
2016,09,03,11,01,717.00
2016,09,03,11,02,459.80
2016,09,03,11,03,359.20
2016,09,03,11,04,345.80
2016,09,03,11,05,353.00
2016,09,03,11,06,353.00
2016,09,03,11,07,353.00
2016,09,03,11,08,413.20
2016,09,03,11,09,412.80
2016,09,03,11,10,413.50
2016,09,03,11,11,445.80
2016,09,03,11,12,654.20
2016,09,03,11,13,703.00
2016,09,03,11,14,703.00
2016,09,03,11,15,703.00
2016,09,03,11,16,703.00
2016,09,03,11,17,703.00
2016,09,03,11,18,357.40
2016,09,03,11,19,367.70
2016,09,03,11,20,396.00
2016,09,03,11,21,488.00
2016,09,03,11,22,580.00
2016,09,03,11,23,580.00
2016,09,03,11,24,413.90
2016,09,03,11,25,406.00
2016,09,03,11,26,421.00
2016,09,03,11,27,488.70
2016,09,03,11,28,493.70
2016,09,03,11,29,448.10
2016,09,03,11,30,438.80
2016,09,03,11,31,450.10
2016,09,03,11,32,520.00
2016,09,03,11,33,520.00
2016,09,03,11,34,520.00
2016,09,03,11,35,520.00
2016,09,03,11,36,500.80
2016,09,03,11,37,463.20
2016,09,03,11,38,386.20
2016,09,03,11,39,411.00
2016,09,03,11,40,369.50
2016,09,03,11,41,415.00
2016,09,03,11,42,436.70
2016,09,03,11,43,413.90
2016,09,03,11,44,373.60
2016,09,03,11,45,361.00
2016,09,03,11,46,406.10
2016,09,03,11,47,400.50
2016,09,03,11,48,420.00
2016,09,03,11,49,555.50
2016,09,03,11,50,680.80
2016,09,03,11,51,608.80
2016,09,03,11,52,610.90
2016,09,03,11,53,527.80
2016,09,03,11,54,564.00
2016,09,03,11,55,490.80
2016,09,03,11,56,365.00
2016,09,03,11,57,350.90
2016,09,03,11,58,365.00
2016,09,03,11,59,406.90
2016,09,03,12,00,410.50
2016,09,03,12,01,348.50
2016,09,03,12,02,384.50
2016,09,03,12,03,425.50
2016,09,03,12,04,400.10
2016,09,03,12,05,389.40
2016,09,03,12,06,388.00
2016,09,03,12,07,436.80
2016,09,03,12,08,742.00
2016,09,03,12,09,619.10
2016,09,03,12,10,418.00
2016,09,03,12,11,502.40
2016,09,03,12,12,554.00
2016,09,03,12,13,554.00
2016,09,03,12,14,555.80
2016,09,03,12,15,549.50
2016,09,03,12,16,585.00
2016,09,03,12,17,667.60
2016,09,03,12,18,756.00
2016,09,03,12,19,756.00
2016,09,03,12,20,719.80
2016,09,03,12,21,721.20
2016,09,03,12,22,766.00
2016,09,03,12,23,766.00
2016,09,03,12,24,766.00
2016,09,03,12,25,788.30
2016,09,03,12,26,802.00
2016,09,03,12,27,621.80
2016,09,03,12,28,601.00
2016,09,03,12,29,601.00
2016,09,03,12,30,601.00
2016,09,03,12,31,601.00
2016,09,03,12,32,601.00
2016,09,03,12,33,750.20
2016,09,03,12,34,800.00
2016,09,03,12,35,838.00
2016,09,03,12,36,838.00
2016,09,03,12,37,838.00
2016,09,03,12,38,838.00
2016,09,03,12,39,838.00
2016,09,03,12,40,838.00
2016,09,03,12,41,838.00
2016,09,03,12,42,838.00
2016,09,03,12,43,863.40
2016,09,03,12,44,930.00
2016,09,03,12,45,930.00
2016,09,03,12,46,930.00
2016,09,03,12,47,662.80
2016,09,03,12,48,641.20
2016,09,03,12,49,560.40
2016,09,03,12,50,480.00
2016,09,03,12,51,480.00
2016,09,03,12,52,505.50
2016,09,03,12,53,531.00
2016,09,03,12,54,531.00
2016,09,03,12,55,495.70
2016,09,03,12,56,533.70
2016,09,03,12,57,583.10
2016,09,03,12,58,615.00
2016,09,03,12,59,865.90
2016,09,03,13,00,1100.00
2016,09,03,13,01,613.70
2016,09,03,13,02,504.50
2016,09,03,13,03,574.70
2016,09,03,13,04,979.00
2016,09,03,13,05,811.20
2016,09,03,13,06,552.00
2016,09,03,13,07,552.00
2016,09,03,13,08,552.00
2016,09,03,13,09,877.90
2016,09,03,13,10,919.00
2016,09,03,13,11,902.00
2016,09,03,13,12,851.00
2016,09,03,13,13,761.00
2016,09,03,13,14,627.60
2016,09,03,13,15,601.00
2016,09,03,13,16,601.00
2016,09,03,13,17,627.80
2016,09,03,13,18,795.00
2016,09,03,13,19,682.20
2016,09,03,13,20,508.00
2016,09,03,13,21,382.60
2016,09,03,13,22,306.00
2016,09,03,13,23,306.00
2016,09,03,13,24,306.00
2016,09,03,13,25,306.00
2016,09,03,13,26,306.00
2016,09,03,13,27,629.50
2016,09,03,13,28,944.30
2016,09,03,13,29,939.00
2016,09,03,13,30,939.00
2016,09,03,13,31,939.00
2016,09,03,13,32,939.00
2016,09,03,13,33,939.00
2016,09,03,13,34,641.60
2016,09,03,13,35,376.20
2016,09,03,13,36,383.00
2016,09,03,13,37,508.90
2016,09,03,13,38,438.40
2016,09,03,13,39,416.00
2016,09,03,13,40,452.60
2016,09,03,13,41,461.30
2016,09,03,13,42,489.90
2016,09,03,13,43,517.00
2016,09,03,13,44,425.90
2016,09,03,13,45,395.10
2016,09,03,13,46,271.00
2016,09,03,13,47,271.00
2016,09,03,13,48,271.00
2016,09,03,13,49,271.00
2016,09,03,13,50,271.00
2016,09,03,13,51,271.00
2016,09,03,13,52,358.30
2016,09,03,13,53,899.50
2016,09,03,13,54,886.00
2016,09,03,13,55,886.00
2016,09,03,13,56,886.00
2016,09,03,13,57,886.00
2016,09,03,13,58,934.30
2016,09,03,13,59,940.10
2016,09,03,14,00,950.20
2016,09,03,14,01,966.10
2016,09,03,14,02,988.40
2016,09,03,14,03,1005.80
2016,09,03,14,04,1053.00
2016,09,03,14,05,1067.00
2016,09,03,14,06,1024.10
2016,09,03,14,07,942.00
2016,09,03,14,08,771.30
2016,09,03,14,09,451.40
2016,09,03,14,10,434.30
2016,09,03,14,11,411.00
2016,09,03,14,12,383.30
2016,09,03,14,13,347.40
2016,09,03,14,14,369.60
2016,09,03,14,15,391.60
2016,09,03,14,16,360.50
2016,09,03,14,17,343.70
2016,09,03,14,18,344.00
2016,09,03,14,19,345.00
2016,09,03,14,20,344.20
2016,09,03,14,21,339.00
2016,09,03,14,22,340.40
2016,09,03,14,23,348.80
2016,09,03,14,24,355.00
2016,09,03,14,25,360.20
2016,09,03,14,26,365.40
2016,09,03,14,27,369.70
2016,09,03,14,28,379.50
2016,09,03,14,29,389.90
2016,09,03,14,30,383.60
2016,09,03,14,31,392.80
2016,09,03,14,32,407.40
2016,09,03,14,33,447.60
2016,09,03,14,34,512.80
2016,09,03,14,35,486.90
2016,09,03,14,36,454.60
2016,09,03,14,37,460.20
2016,09,03,14,38,493.00
2016,09,03,14,39,494.30
2016,09,03,14,40,490.00
2016,09,03,14,41,703.00
2016,09,03,14,42,632.10
2016,09,03,14,43,479.40
2016,09,03,14,44,565.70
2016,09,03,14,45,598.00
2016,09,03,14,46,514.00
2016,09,03,14,47,408.70
2016,09,03,14,48,422.00
2016,09,03,14,49,554.20
2016,09,03,14,50,483.00
2016,09,03,14,51,577.70
2016,09,03,14,52,727.10
2016,09,03,14,53,761.00
2016,09,03,14,54,761.00
2016,09,03,14,55,726.80
2016,09,03,14,56,533.80
2016,09,03,14,57,588.00
2016,09,03,14,58,538.00
2016,09,03,14,59,502.20
2016,09,03,15,00,478.70
2016,09,03,15,01,462.10
2016,09,03,15,02,471.30
2016,09,03,15,03,512.40
2016,09,03,15,04,566.00
2016,09,03,15,05,566.00
2016,09,03,15,06,566.00
2016,09,03,15,07,475.00
2016,09,03,15,08,457.60
2016,09,03,15,09,464.90
2016,09,03,15,10,466.50
2016,09,03,15,11,463.90
2016,09,03,15,12,511.00
2016,09,03,15,13,476.10
2016,09,03,15,14,432.90
2016,09,03,15,15,412.00
2016,09,03,15,16,400.90
2016,09,03,15,17,384.70
2016,09,03,15,18,372.50
2016,09,03,15,19,364.40
2016,09,03,15,20,378.10
2016,09,03,15,21,358.90
2016,09,03,15,22,339.30
2016,09,03,15,23,332.40
2016,09,03,15,24,339.40
2016,09,03,15,25,352.70
2016,09,03,15,26,357.00
2016,09,03,15,27,357.00
2016,09,03,15,28,357.00
2016,09,03,15,29,352.50
2016,09,03,15,30,346.60
2016,09,03,15,31,336.50
2016,09,03,15,32,330.90
2016,09,03,15,33,329.00
2016,09,03,15,34,329.60
2016,09,03,15,35,333.00
2016,09,03,15,36,337.40
2016,09,03,15,37,342.00
2016,09,03,15,38,331.20
2016,09,03,15,39,321.70
2016,09,03,15,40,325.20
2016,09,03,15,41,309.30
2016,09,03,15,42,309.30
2016,09,03,15,43,312.80
2016,09,03,15,44,314.40
2016,09,03,15,45,326.60
2016,09,03,15,46,346.00
2016,09,03,15,47,386.00
2016,09,03,15,48,453.30
2016,09,03,15,49,478.00
2016,09,03,15,50,847.80
2016,09,03,15,51,904.40
2016,09,03,15,52,889.00
2016,09,03,15,53,835.00
2016,09,03,15,54,585.20
2016,09,03,15,55,341.70
2016,09,03,15,56,336.00
2016,09,03,15,57,336.00
2016,09,03,15,58,334.20
2016,09,03,15,59,328.00
2016,09,03,16,00,366.50
2016,09,03,16,01,363.10
2016,09,03,16,02,319.90
2016,09,03,16,03,321.00
2016,09,03,16,04,336.70
2016,09,03,16,05,337.00
2016,09,03,16,06,381.00
2016,09,03,16,07,381.00
2016,09,03,16,08,381.00
2016,09,03,16,09,381.00
2016,09,03,16,10,339.00
2016,09,03,16,11,328.40
2016,09,03,16,12,329.00
2016,09,03,16,13,350.00
2016,09,03,16,14,413.00
2016,09,03,16,15,498.00
2016,09,03,16,16,589.00
2016,09,03,16,17,447.90
2016,09,03,16,18,316.40
2016,09,03,16,19,301.00
2016,09,03,16,20,301.00
2016,09,03,16,21,303.70
2016,09,03,16,22,308.00
2016,09,03,16,23,308.00
2016,09,03,16,24,308.00
2016,09,03,16,25,233.00
2016,09,03,16,26,302.00
2016,09,03,16,27,212.00
2016,09,03,16,28,194.10
2016,09,03,16,29,240.00
2016,09,03,16,30,228.50
2016,09,03,16,31,206.00
2016,09,03,16,32,534.70
2016,09,03,16,33,563.90
2016,09,03,16,34,560.80
2016,09,03,16,35,554.00
2016,09,03,16,36,330.50
2016,09,03,16,37,95.30
2016,09,03,16,38,98.00
2016,09,03,16,39,98.00
2016,09,03,16,40,156.00
2016,09,03,16,41,502.80
2016,09,03,16,42,497.90
2016,09,03,16,43,493.10
2016,09,03,16,44,488.10
2016,09,03,16,45,483.20
2016,09,03,16,46,478.60
2016,09,03,16,47,475.30
2016,09,03,16,48,478.50
2016,09,03,16,49,479.20
2016,09,03,16,50,478.00
2016,09,03,16,51,476.70
2016,09,03,16,52,475.20
2016,09,03,16,53,473.30
2016,09,03,16,54,473.70
2016,09,03,16,55,478.00
2016,09,03,16,56,478.00
2016,09,03,16,57,471.20
2016,09,03,16,58,464.00
2016,09,03,16,59,461.80
2016,09,03,17,00,457.60
2016,09,03,17,01,454.00
2016,09,03,17,02,454.00
2016,09,03,17,03,454.00
2016,09,03,17,04,255.00
2016,09,03,17,05,56.00
2016,09,03,17,06,61.20
2016,09,03,17,07,63.00
2016,09,03,17,08,433.30
2016,09,03,17,09,427.80
2016,09,03,17,10,423.20
2016,09,03,17,11,422.00
2016,09,03,17,12,420.70
2016,09,03,17,13,417.70
2016,09,03,17,14,413.60
2016,09,03,17,15,410.00